Location: Saint-Michel-des-Saints
(46.6688°N, 73.9573°W)
Time: 21:52:56
(UTC-04:00)

Envisat - Visible Passes

Search period start: 19 October 2019 00:00
Search period end: 29 October 2019 00:00
Orbit: 764 x 766 km, 98.1° (Epoch: 19 October)

Date Brightness Start Highest point End Pass type
(mag) Time Alt. Az. Time Alt. Az. Time Alt. Az.
19 Oct 3.4 19:09:14 10° S 19:14:17 67° WSW 19:19:22 10° NNW visible
20 Oct 3.0 18:32:34 10° SSE 18:37:32 59° ENE 18:42:32 10° N visible
20 Oct 5.7 20:13:21 10° SW 20:16:58 19° W 20:20:35 10° NW visible
21 Oct 6.1 06:39:44 10° NE 06:42:57 17° E 06:46:09 10° SE visible
21 Oct 4.4 19:35:08 10° SSW 19:39:53 40° W 19:44:40 10° NNW visible
22 Oct 3.1 18:57:55 10° SSE 19:03:00 83° WSW 19:08:07 10° NNW visible
22 Oct 6.2 20:41:21 10° WSW 20:42:48 11° W 20:44:17 10° WNW visible
23 Oct 3.2 18:21:28 10° SE 18:26:19 48° ENE 18:31:12 10° N visible
23 Oct 5.3 20:01:31 10° SW 20:05:34 24° W 20:09:40 10° NW visible
24 Oct 6.3 06:29:08 10° ENE 06:31:33 13° E 06:33:56 10° ESE visible
24 Oct 4.0 19:23:39 10° S 19:28:34 49° W 19:33:30 10° NNW visible
25 Oct 2.9 18:46:40 10° SSE 18:51:44 80° ENE 18:56:51 10° NNW visible
25 Oct 6.0 20:28:43 10° WSW 20:31:23 14° W 20:34:04 10° NW visible
26 Oct 5.9 06:53:23 10° NE 06:57:21 22° E 07:01:18 10° SE visible
26 Oct 5.0 19:49:49 10° SSW 19:54:13 29° W 19:58:39 10° NW visible
27 Oct 6.7 06:19:24 10° ENE 06:20:06 10° E 06:20:49 10° E visible
27 Oct 3.5 19:12:14 10° S 19:17:15 62° W 19:22:19 10° NNW visible
28 Oct 3.0 18:35:29 10° SSE 18:40:30 65° ENE 18:45:32 10° N visible
28 Oct 5.7 20:16:35 10° SW 20:19:59 18° W 20:23:23 10° NW visible
